STARLINK-11228, 60398

Orbit data source: Space-Track

STARLINK-11228, 60398 is a payload satellite owned by SpaceX/Seattle (US) in LEO that was launched on Sat, 10 Aug 2024 UTC via an FALCON 9 launch vehicle from the Air Force Eastern Test Range (AFETR). Payload-class satellites include a variety of spacecraft equipped with specific instruments for various scientific and technological missions. These include communications satellites like Starlink; space stations such as the ISS; scientific satellites like the Hubble; Earth observation satellites from companies like Planet Labs, Umbra, and HawkEye 360; GPS; miniature CubeSats for education and research; and military/defense satellites.

Loading next visibility...
Identifier
60398, 2024-141A
Orbit
LEO
Country
Flag of USUS
Related business
Manufacturer
SpaceX/Seattle
Mission
Operational Commercial Communications
Bus & Motor
STARLINK V2MD, Unknown motor
Mass
960 kg wet, ~910 kg dry
Launch date (UTC)
2024-08-10 (1 year ago)
Launch vehicle
FALCON 9
Launch site
Air Force Eastern Test Range (AFETR)
Object type
Payload
Rocket body
Debris
Shape & HBR
Box + 2 Pan, 14.5 m
Radar Cross Section
36.964 m², Large (>1 m²)

Expand to show TLE details & history
Last TLE update: 21 hours ago

TLE from 21 hours ago
0 STARLINK-11228
1 60398U 24141A   25260.32416348 -.00001263  00000-0 -55861-5 0  9998
2 60398  53.1592 220.9107 0000087  41.6123 318.4902 15.69702114 64469
Epoch: 2025-09-17T07:46Z
TLE epoch observation values (Epoch: 2025-09-17T07:46:47.724Z)
Latitude
0.00001°
Longitude
107.71011°
Altitude
360.62 km
Speed
7.694 km/s
True Right ascension
14h 43m 38s
True Declination
0° 00' 00"
Sunlit
Object was in daylight at epoch
Visualization orbit readout
Latitude
Unknown
Longitude
Unknown
Altitude
Unknown
Speed
Unknown
Apparent Right ascension
Unknown
Apparent Declination
Unknown
Sunlit
N/A
Visualization observer readout
Local Sidereal Time
22:02:03
Azimuth
Unknown
Elevation
Unknown
Doppler factor
Unknown
Orbital elements
Apogee altitude
360.069 km
Perigee altitude
359.952 km
Semi-major axis
6,738.147 km
Eccentricity
0.00001
Inclination
53.1592°
RAAN
220.9107°
Arg. of periapsis
41.6123°
True anomaly
318.48954°
Mean anomaly
318.4902°
Eccentric anomaly
318.48987°
Mean motion
3.92403 °/min
Orbital period
91.74 mins
BSTAR
-0.0000055861
Loading maneuver chart data...
Computing Atmospheric mass density...
Loading historical data...
Loading historical data...
Loading historical data...
Loading historical data...
Loading historical data...
Loading historical data...
Loading historical data...

Documentation

Showing up to 5 results
|